Estación de La Cruz
Ultimos registro cada 15 minutos 23
| N° | Estación | Fecha / Hora | Temperatura | Humedad | Lluvia | Velocidad | Dirección | Radiación | Presion |
| 23 | La Cruz | 06-05-2026 05:30 | 7,6 | 94,4 | 0 | 0 | 70 | 0,6 | 998,1 |
| 22 | La Cruz | 06-05-2026 05:15 | 7,8 | 94,4 | 0 | 0 | 69 | 0,6 | 998,1 |
| 21 | La Cruz | 06-05-2026 05:00 | 7,6 | 94,1 | 0 | 0 | 69 | 0,6 | 997,8 |
| 20 | La Cruz | 06-05-2026 04:45 | 8,4 | 94,2 | 0 | 0 | 69 | 0,6 | 997,7 |
| 19 | La Cruz | 06-05-2026 04:30 | 9 | 94,4 | 0 | 0 | 69 | 0,6 | 997,6 |
| 18 | La Cruz | 06-05-2026 04:15 | 8,4 | 94,3 | 0 | 0 | 69 | 0,6 | 997,5 |
| 17 | La Cruz | 06-05-2026 04:00 | 8,3 | 93,8 | 0 | 0 | 69 | 0,6 | 997,6 |
| 16 | La Cruz | 06-05-2026 03:45 | 8,9 | 93,6 | 0 | 0 | 69 | 0,6 | 997,4 |
| 15 | La Cruz | 06-05-2026 03:30 | 9,7 | 93,8 | 0 | 0 | 66 | 0,6 | 997,5 |
| 14 | La Cruz | 06-05-2026 03:15 | 10,5 | 94,1 | 0 | 0 | 1 | 0,6 | 997,3 |
| 13 | La Cruz | 06-05-2026 03:00 | 10,4 | 94 | 0 | 0 | 42 | 0,6 | 997 |
| 12 | La Cruz | 06-05-2026 02:45 | 9,8 | 93,4 | 0 | 0 | 51 | 0,6 | 996,9 |
| 11 | La Cruz | 06-05-2026 02:30 | 10,5 | 93,4 | 0 | 0 | 51 | 0,6 | 996,7 |
| 10 | La Cruz | 06-05-2026 02:15 | 10,6 | 93,2 | 0 | 0 | 188 | 0,6 | 997,2 |
| 9 | La Cruz | 06-05-2026 02:00 | 10,9 | 93,2 | 0 | 0 | 247 | 0,6 | 997,2 |
| 8 | La Cruz | 06-05-2026 01:45 | 10,7 | 93,4 | 0 | 0 | 243 | 0,6 | 997,3 |
| 7 | La Cruz | 06-05-2026 01:30 | 10 | 92,2 | 0 | 0 | 246 | 0,6 | 997,5 |
| 6 | La Cruz | 06-05-2026 01:15 | 10,2 | 91,6 | 0 | 0 | 246 | 0,6 | 997,6 |
| 5 | La Cruz | 06-05-2026 01:00 | 10,9 | 91,6 | 0 | 0 | 246 | 0,6 | 997,7 |
| 4 | La Cruz | 06-05-2026 00:45 | 11,3 | 91,6 | 0 | 0 | 246 | 0,6 | 997,9 |
| 3 | La Cruz | 06-05-2026 00:30 | 11,4 | 91,4 | 0 | 0 | 246 | 0,6 | 998 |
| 2 | La Cruz | 06-05-2026 00:15 | 11,8 | 91,7 | 0 | 0 | 246 | 0,6 | 998 |
| 1 | La Cruz | 06-05-2026 00:00 | 11,7 | 91,7 | 0 | 0 | 246 | 0,6 | 998,2 |